Content
SEND FEEDBACK

Daily
Averages
Monthly
Summary
Canada

VANCOUVER, BRITISH COLUMBIA


Home > North America > Canada > British Columbia
Elevation: 7 feet     Latitude: 49 11N     Longitude: 123 10W

WEATHER
 
SELECT A DAY
Number of Records: 253,080;   Date Range: 5/15/97 - 10/24/14
 
SHARE

PRINT THIS DATA

[ ← Previous Day ]
WEATHER ALMANAC - APRIL 26, 2013
[ Next Day → ]
[ °C ]   °F
Weather ElementAverageHighLow
Temperature51.8 °F57.2 °F (3:35 pm)46.4 °F (2:35 am)
Dewpoint43.4 °F46.4 °F (11:35 am)37.4 °F (4:15 pm)
Humidity74.7 %93 % (2:35 am)48 % (4:15 pm)
Barometer30.18 in30.23 in (11:15 am)30.11 in (12:35 am)
Wind Speed10.2 mph15 mph (1:15 am)
Wind Gust21.9 mph (9:35 am)
Weather ElementAverage
Visibility9.5 mi
Wind DirectionS (184.5 °)

Weather ElementTotal
Precipitation---
Heating Degree Days13.2 (Base 65)
Growing Degree Days1.8 (Base 50)
Averaged from 66 records on April 26, 2013
WEATHER CONDITIONS BREAKOUT
WIND DIRECTION BREAKOUT
WEATHER BY HOUR - APRIL 26, 2013
[ °C ]   °F
Local TimeTemperatureDewpointHumidityBarometerVisibilityWind DirectionWind SpeedGust SpeedPrecipitationEventsConditions
12:35 AM48.2 °F44.6 °F87 %30.11 in10.0 miSouth (180°)9.2 mph16.1 mphClear
12:55 AM48.2 °F44.6 °F87 %30.11 in10.0 miSouth (190°)10.4 mph16.1 mphClear
1:15 AM48.2 °F44.6 °F87 %30.13 in10.0 miSouth (190°)15.0 mph20.7 mphClear
1:55 AM48.2 °F42.8 °F82 %30.13 in10.0 miSouth (190°)9.2 mphClear
2:15 AM48.2 °F44.6 °F87 %30.13 in10.0 miSouth (190°)12.7 mphClear
2:35 AM46.4 °F44.6 °F93 %30.13 in10.0 miSSW (200°)12.7 mphClear
2:55 AM46.4 °F44.6 °F93 %30.13 in10.0 miSSW (200°)11.5 mph16.1 mphClear
3:15 AM46.4 °F44.6 °F93 %30.14 in10.0 miSouth (190°)10.4 mph16.1 mphClear
3:35 AM46.4 °F44.6 °F93 %30.14 in10.0 miSouth (190°)10.4 mphClear
3:55 AM46.4 °F42.8 °F87 %30.14 in10.0 miSouth (190°)13.8 mphClear
4:15 AM46.4 °F42.8 °F87 %30.15 in10.0 miSSW (200°)12.7 mph17.3 mphClear
4:55 AM46.4 °F44.6 °F93 %30.16 in10.0 miSouth (190°)10.4 mph17.3 mphClear
5:15 AM46.4 °F44.6 °F93 %30.16 in10.0 miSouth (190°)12.7 mph16.1 mphClear
5:35 AM46.4 °F44.6 °F93 %30.17 in10.0 miSouth (180°)9.2 mph16.1 mphClear
5:55 AM46.4 °F42.8 °F87 %30.17 in10.0 miSouth (190°)10.4 mph16.1 mphClear
6:15 AM46.4 °F44.6 °F93 %30.17 in8.0 miSouth (170°)8.1 mphClear
6:35 AM46.4 °F44.6 °F93 %30.17 in8.0 miSouth (190°)11.5 mphClear
6:55 AM46.4 °F44.6 °F93 %30.18 in8.0 miSouth (190°)12.7 mph17.3 mphClear
7:15 AM46.4 °F44.6 °F93 %30.17 in9.0 miSSW (200°)15.0 mphClear
7:35 AM48.2 °F44.6 °F87 %30.17 in9.0 miSouth (190°)12.7 mph20.7 mphClear
7:55 AM48.2 °F44.6 °F87 %30.18 in9.0 miSouth (190°)10.4 mph20.7 mphClear
8:15 AM50.0 °F44.6 °F82 %30.19 in9.0 miSouth (180°)10.4 mph18.4 mphClear
8:35 AM50.0 °F44.6 °F82 %30.18 in8.0 miSouth (190°)15.0 mph20.7 mphClear
9:15 AM50.0 °F44.6 °F82 %30.19 in9.0 miSouth (180°)11.5 mph17.3 mphClear
9:35 AM50.0 °F44.6 °F82 %30.20 in8.0 miSouth (180°)13.8 mph21.9 mphClear
9:55 AM50.0 °F44.6 °F82 %30.20 in8.0 miSouth (170°)11.5 mph18.4 mphClear
10:15 AM50.0 °F44.6 °F82 %30.20 in8.0 miSouth (170°)11.5 mph19.6 mphClear
10:35 AM50.0 °F44.6 °F82 %30.21 in8.0 miSouth (170°)10.4 mph19.6 mphClear
10:55 AM50.0 °F44.6 °F82 %30.21 in9.0 miSouth (180°)13.8 mph21.9 mphClear
11:15 AM50.0 °F44.6 °F82 %30.23 in9.0 miSouth (180°)11.5 mph20.7 mphClear
11:35 AM50.0 °F46.4 °F87 %30.22 in9.0 miSouth (180°)12.7 mph17.3 mphClear
11:55 AM50.0 °F46.4 °F87 %30.23 in8.0 miSouth (190°)12.7 mph18.4 mphClear
12:15 PM53.6 °F46.4 °F77 %30.22 in9.0 miSouth (190°)12.7 mph18.4 mphClear
12:35 PM55.4 °F46.4 °F72 %30.23 in10.0 miSouth (190°)10.4 mphClear
12:55 PM53.6 °F46.4 °F77 %30.23 in9.0 miSouth (190°)10.4 mphClear
1:15 PM53.6 °F46.4 °F77 %30.22 in10.0 miSouth (190°)10.4 mph16.1 mphClear
1:35 PM53.6 °F46.4 °F77 %30.22 in10.0 miSouth (190°)9.2 mphClear
1:55 PM53.6 °F46.4 °F77 %30.22 in9.0 miSouth (190°)13.8 mph17.3 mphClear
2:15 PM53.6 °F46.4 °F77 %30.22 in9.0 miSouth (190°)11.5 mph16.1 mphClear
2:35 PM55.4 °F46.4 °F72 %30.21 in9.0 miSouth (180°)6.9 mph16.1 mphClear
2:55 PM55.4 °F46.4 °F72 %30.21 in10.0 miSouth (190°)10.4 mph17.3 mphClear
3:15 PM55.4 °F41.0 °F58 %30.21 in10.0 miSouth (180°)11.5 mphClear
3:35 PM57.2 °F39.2 °F51 %30.20 in10.0 miSouth (170°)8.1 mph17.3 mphClear
3:55 PM57.2 °F39.2 °F51 %30.20 in10.0 miSouth (180°)8.1 mph17.3 mphClear
4:15 PM57.2 °F37.4 °F48 %30.19 in10.0 miSouth (180°)10.4 mphClear
4:35 PM57.2 °F37.4 °F48 %30.19 in10.0 miSouth (180°)9.2 mphClear
5:15 PM57.2 °F39.2 °F51 %30.19 in10.0 miSouth (190°)8.1 mphClear
5:35 PM57.2 °F39.2 °F51 %30.18 in10.0 miSSW (200°)8.1 mphClear
5:55 PM57.2 °F41.0 °F55 %30.18 in10.0 miSSW (200°)9.2 mphClear
6:15 PM57.2 °F41.0 °F55 %30.18 in10.0 miSSW (200°)9.2 mphClear
6:35 PM57.2 °F41.0 °F55 %30.18 in10.0 miSSW (200°)10.4 mphClear
6:55 PM57.2 °F41.0 °F55 %30.18 in10.0 miSouth (180°)8.1 mphClear
7:15 PM57.2 °F41.0 °F55 %30.16 in10.0 miSouth (170°)6.9 mphPartly Cloudy
7:55 PM55.4 °F41.0 °F58 %30.16 in10.0 miSouth (180°)8.1 mphClear
8:15 PM55.4 °F41.0 °F58 %30.16 in10.0 miSouth (190°)8.1 mphClear
8:35 PM55.4 °F41.0 °F58 %30.17 in10.0 miSSW (200°)5.8 mphClear
8:55 PM55.4 °F41.0 °F58 %30.17 in10.0 miCalmClear
9:15 PM55.4 °F41.0 °F58 %30.17 in10.0 miSSW (200°)5.8 mphClear
9:35 PM55.4 °F42.8 °F63 %30.17 in10.0 miSouth (190°)6.9 mphClear
9:55 PM55.4 °F41.0 °F58 %30.18 in10.0 miSouth (190°)9.2 mphClear
10:15 PM53.6 °F44.6 °F72 %30.18 in10.0 miSouth (190°)9.2 mphClear
10:35 PM53.6 °F42.8 °F67 %30.18 in10.0 miSSW (200°)9.2 mphClear
10:55 PM53.6 °F42.8 °F67 %30.17 in10.0 miSouth (180°)6.9 mphClear
11:15 PM53.6 °F42.8 °F67 %30.17 in10.0 miSSW (200°)10.4 mphClear
11:35 PM53.6 °F42.8 °F67 %30.17 in10.0 miSouth (190°)9.2 mphClear
11:55 PM53.6 °F42.8 °F67 %30.17 in10.0 miSouth (180°)4.6 mphClear
Hourly data recorded from CZBB, located miles away from Vancouver, British Columbia







STORIES FROM OUR PARTNERS